Simultaneous Nadir Overpasses (SNOs) Predictions

Prediction of SNOs between LANDSAT-8 and METOP-A Satellite Orbit:

Table of predicted SNOs for the next 14.0 days since TLE Epoch: 2/12/2015
Index Date (LANDSAT-8) Time (LANDSAT-8) Lat,Lon (LANDSAT-8) SZA (LANDSAT-8 ) Date (METOP-A) Time (METOP-A) Lat,Lon (METOP-A) SZA (METOP-A ) Distance(km) Time Diff (sec)
1 02/13/2015 22:15:00 81.11,-114.41 95.93 02/13/2015 22:14:22 81.12,-114.23 95.94 3.20 38
2 02/13/2015 23:04:26 -81.13, 53.54 84.04 02/13/2015 23:05:01 -81.14, 53.67 84.01 2.24 35
3 02/16/2015 17:49:11 81.12, -47.81 94.99 02/16/2015 17:48:46 81.12, -47.94 94.97 2.37 25
4 02/16/2015 18:38:37 -81.14, 120.16 84.98 02/16/2015 18:39:25 -81.14, 119.99 84.98 3.02 48
5 02/19/2015 13:23:22 81.12, 18.56 94.00 02/19/2015 13:23:09 81.12, 18.68 94.01 2.10 13
6 02/19/2015 14:12:48 -81.14,-173.46 85.97 02/19/2015 14:13:48 -81.14,-173.36 85.93 1.77 60
7 02/22/2015 08:08:07 -81.10, -82.94 87.04 02/22/2015 08:06:53 -81.10, -82.79 87.05 2.79 74
8 02/22/2015 08:57:32 81.12, 85.06 93.00 02/22/2015 08:57:32 81.13, 85.23 93.03 3.22 0
9 02/22/2015 09:46:58 -81.14,-106.96 86.97 02/22/2015 09:48:11 -81.15,-106.77 86.91 3.30 73
10 02/25/2015 03:42:15 -81.11, -16.30 88.04 02/25/2015 03:41:15 -81.11, -16.25 88.05 1.01 60




NCC Satellite Simultaneous Nadir Overpasses (SNOs) Prediction Service
